Volver al catálogo

SL-8 R/B

ActivoLEO
NORAD 10513·ROCKET BODY·🇷🇺 Russia

Lanzado Dec 13, 1977 desde Plesetsk Cosmodrome

Loading…

Próximos Pases (próximas 24 horas)

TLE

ActualizadoSource: Space-Track

Época: Sep 14, 2026, 15:14 UTC

1 10513U 77116B   26257.63504094 -.00000021  00000-0  59047-4 0  9998
2 10513  65.8352  13.5774 0026882 191.4928 180.0231 13.78882230453164

Sigue SL-8 R/B en tiempo real con AllMySat

Download on the App Store